Regional Weather Roundup
Issued by NWS Mobile, AL

Home | Current Version | Previous Version | Text Only | Print | Product List | Glossary On
Versions: 1 2 3 4 5 6 7 8 9 10 11 12 13 14 15 16 17 18 19 20 21 22 23 24 25 26 27 28
000
ASUS44 KMOB 180712
RWRMOB
REGIONAL WEATHER ROUNDUP
NATIONAL WEATHER SERVICE MOBILE AL
100 AM CST MON DEC 18 2017

NOTE: "FAIR" INDICATES FEW OR NO CLOUDS BELOW 12,000 FEET WITH NO
      SIGNIFICANT WEATHER AND/OR OBSTRUCTIONS TO VISIBILITY.

  * THESE STATIONS ARE PART OF THE UNIVERSITY OF SOUTH ALABAMA
    MESONET AND ARE NOT UNDER NWS OR FAA QUALITY CONTROL.

ALZ061>064-180800-
COASTAL ALABAMA

CITY           SKY/WX    TMP DP  RH WIND       PRES   REMARKS
MOBILE REG APT FOG       62  61  96 CALM      30.15S VSB 1/4
BROOKLEY FIELD CLOUDY    65  65 100 SW3       30.16R FOG
USA CAMPUS*    NOT AVBL
DOG RIVER*     NOT AVBL


CITY           SKY/WX    TMP DP  RH WIND       PRES   REMARKS
GULF SHORES    CLOUDY    67  67 100 SE8       30.13F

$$

ALZ051>060-180800-
INTERIOR SOUTHWEST AND SOUTH CENTRAL ALABAMA

CITY           SKY/WX    TMP DP  RH WIND       PRES   REMARKS
GREENVILLE     FOG       60  57  89 N5        30.14S VSB 3/4
EVERGREEN      FOG       66  65  96 CALM      30.14F VSB 1/4
ATMORE*          N/A    N/A N/A N/A CALM        N/A
ANDALUSIA/OPP  CLOUDY    70  67  90 VRB3      30.13S
ANDALUSIA*       N/A     68  66  94 SW3       30.13F
FLORALA APT    CLOUDY    69  67  93 S8        30.14F
FLORALA*         N/A     68  68 100 SE5       30.85F

$$

FLZ001>006-180800-
WESTERN FLORIDA PANHANDLE

CITY           SKY/WX    TMP DP  RH WIND       PRES   REMARKS
PENSACOLA      FOG       67  66  97 S6        30.13F VSB 1
NAS PENSACOLA  CLOUDY    69  67  93 SW3       30.13S
MILTON         FOG       67  67 100 S6        30.13F VSB 1/4
WHTNG S FIELD  FOG       70  68  93 S3        30.13F VSB 1/4


CITY           SKY/WX    TMP DP  RH WIND       PRES   REMARKS
JAY*             N/A     66  66 100 S3        30.14S
DUKE FIELD     CLOUDY    68  68 100 S9        30.13S
CRESTVIEW      CLOUDY    69  68  96 S8        30.15F
VALPARAISO     MOCLDY    68  68 100 S5        30.13F FOG
DESTIN         CLOUDY    72  66  81 S6        30.13S

$$

MSZ076-079-180800-
INTERIOR SOUTHEAST MISSISSIPPI

CITY           SKY/WX    TMP DP  RH WIND       PRES   REMARKS
LEAKESVILLE*     N/A     64  64 100 CALM      30.16R
AGRICOLA*      NOT AVBL

$$

MARINE OBSERVATIONS

STATION/POSITION TIME  TEMP    WIND        PRES    WAVE
                       AIR SEA DIR/SP/G            HT/PER
                 (UTC) (F)     (DEG/KT/KT) (MB)    (FT/S)
PASCAGOULA       0642          170/  8/ 11 1020.1R
PETIT BOIS ISLND 0642          190/  6/  6 1021.2R
KATRINA CUT      0630   61     180/ 11     1020.3S
CEDAR POINT      0630   63     170/  7     1020.3R
E DAUPHIN ISLAND 0600   63     170/  5/  6 1020.2R
MIDDLE BAY LIGHT 0630   58     130/ 11     1020.0S
USCG MOBILE BAY  0648      56  240/  2/  5 1020.6R
STATE DOCKS      0642      56              1020.5R
MEAHER PARK      0630   58     340/  3     1021.0R
WEEKS BAY        0545   64                 1020.0S
FORT MORGAN      0642          190/ 18/ 18   N/A
12 S ORANGE BCH  NOT AVBL
PENSACOLA BAY    0448   64 55              1020.6
64 S DAUPHIN ISL 0650   73 74  180/  4/  8 1020.9F   4/ 7
67 S FORT MORGAN 0630   73                 1021.0S

$$

SELECTED LOCATIONS ACROSS THE REGION

CITY           SKY/WX    TMP DP  RH WIND       PRES   REMARKS
NEW ORLEANS    LGT RAIN  65  65 100 W6        30.13S
GULFPORT       CLOUDY    65  64  97 CALM      30.12F
PASCAGOULA AP  CLOUDY    64  62  93 CALM      30.14S FOG
PASCAGOULA*    NOT AVBL
HATTIESBURG    CLOUDY    58  58 100 CALM      30.15S FOG
LAUREL         CLOUDY    56  56 100 CALM      30.15S FOG
MERIDIAN       CLOUDY    52  51  97 NE3       30.15S
JACKSON        CLOUDY    58  56  93 NW3       30.13S
MONTGOMERY     FOG       52  50  93 CALM      30.16S VSB 1/4
TROY           CLOUDY    66  66 100 SW3       30.15S
ASHFORD*         N/A     68  66  94 SW3       30.13F
DOTHAN         CLOUDY    68  68 100 SW14      30.17S
PANAMA CITY    CLOUDY    69  68  96 S9        30.15R

$$





USA.gov is the U.S. government's official web portal to all federal, state and local government web resources and services.